Location: Unspecified
(35.6961°N, 0.0000°E)
Time: 18:23:36
(UTC+00:00)

Vanguard 3 - Pass Details

Date: 30 May 2019
Orbit: 508 x 3263 km, 33.3° (Epoch: 24 June)

Event Time Altitude Azimuth Distance (km) Brightness Sun altitude
Rises 02:15:18 0° 272° (W) 4,995 - -24.0°
Reaches altitude 10° 02:19:09 10° 258° (WSW) 4,416 - -23.5°
Maximum altitude 02:28:25 23° 212° (SSW) 4,232 - -22.4°
Exits shadow 02:33:19 20° 190° (S) 4,763 10.5 -21.8°
Drops below altitude 10° 02:40:48 10° 168° (SSE) 5,977 11.2 -20.8°
Sets 02:47:26 0° 157° (SSE) 7,182 11.7 -19.9°
